Location: Caltech
(34.1382°N, 118.1253°W)
Time: 05:40:40
(UTC-07:00)

Iridium 49 - Visible Passes

Search period start: 20 August 2014 00:00
Search period end: 30 August 2014 00:00
Orbit: 776 x 779 km, 86.4° (Epoch: 19 August)

Date Brightness Start Highest point End Pass type
(mag) Time Alt. Az. Time Alt. Az. Time Alt. Az.
20 Aug 8.9 00:20:54 11° NNE 00:20:54 11° NNE 00:21:00 10° NNE visible
21 Aug 8.9 01:28:00 11° NNW 01:28:00 11° NNW 01:28:14 10° NNW visible
22 Aug 8.9 00:54:37 12° N 00:54:37 12° N 00:55:00 10° N visible
23 Aug 9.0 00:21:15 11° NNE 00:21:15 11° NNE 00:21:22 10° NNE visible
25 Aug 9.0 00:54:56 10° N 00:54:56 10° N 00:54:58 10° N visible
26 Aug 9.0 00:21:32 10° N 00:21:32 10° N 00:21:34 10° N visible
